CZ-4 DEB, 26200

Orbit data source: Space-Track

CZ-4 DEB, 26200 is space debris in SSO originally from a launch on Thu, 14 Oct 1999 UTC launched from the Taiyaun Space Center, China (TSC). Debris objects in space refer to the collection of defunct objects orbiting the Earth. Examples of debris include non-operational satellites, rocket bodies, and fragments generated from explosions, collisions, or faulty payload assembly.

Loading next visibility...
Identifier
26200, 1999-057CN
Orbit
SSO
Country
Flag of CNCN / PRC
Related business
Manufacturer
Unknown
Mission
Spacecraft
Bus & Motor
Unknown
Mass
Unknown
Launch date (UTC)
1999-10-14 (26 years ago)
Launch vehicle
Unknown
Launch site
Taiyaun Space Center, China (TSC)
Object type
Payload
Rocket body
Debris
Shape & HBR
Unknown shape, 0.1 m
Radar Cross Section
Small (<0.1 m²)

Expand to show TLE details & history
Last TLE update: 11 hours ago

TLE from 11 hours ago
0 CZ-4 DEB
1 26200U 99057CN  26037.88236404  .00007622  00000-0  10584-2 0  9990
2 26200  98.2839  20.8564 0041958   5.1984 354.9653 14.77579470377272
Epoch: 2026-02-06T21:10Z
TLE epoch observation values (Epoch: 2026-02-06T21:10:36.253Z)
Latitude
0.00004°
Longitude
-73.80852°
Altitude
610.656 km
Speed
7.57 km/s
True Right ascension
01h 23m 25s
True Declination
0° 00' 00"
Sunlit
Object was in daylight at epoch
Visualization orbit readout
Latitude
Unknown
Longitude
Unknown
Altitude
Unknown
Speed
Unknown
Apparent Right ascension
Unknown
Apparent Declination
Unknown
Sunlit
N/A
Visualization observer readout
Local Sidereal Time
10:41:22
Azimuth
Unknown
Elevation
Unknown
Doppler factor
Unknown
Orbital elements
Apogee altitude
663.458 km
Perigee altitude
604.615 km
Semi-major axis
7,012.174 km
Eccentricity
0.0042
Inclination
98.2839°
RAAN
20.8564°
Arg. of periapsis
5.1984°
True anomaly
354.92288°
Mean anomaly
354.9653°
Eccentric anomaly
354.94411°
Mean motion
3.69627 °/min
Orbital period
97.4 mins
BSTAR
0.0010584
Loading maneuver chart data...
Computing Atmospheric mass density...
Loading historical data...
Loading historical data...
Loading historical data...
Loading historical data...
Loading historical data...
Loading historical data...
Loading historical data...

Documentation

Showing up to 5 results
|